User: anonymous   Login
Location: *
(45.0500°N, 12.0500°E)
Time: 11:25:43
(UTC+00:00)
Language:

Cosmos 1980 Rocket - Orbit

View from above orbital plane
View from above orbital plane
View from above satellite
View from above satellite

Ground track
Ground track

The orbit data is extracted from the following two-line orbital elements,

1 19650U 88102B   20184.74561486 -.00000280 +00000-0 -11773-3 0  9990
2 19650 070.9971 197.7522 0016501 287.9803 071.9521 14.15790617633041
Epoch (UTC): 02 July 2020 17:53:41
Eccentricity: 0.0016501
inclination: 70.9971°
perigee height: 828 km
apogee height: 851 km
right ascension of ascending node: 197.7522°
argument of perigee: 287.9803°
revolutions per day: 14.15790617
mean anomaly at epoch: 71.9521°
orbit number at epoch: 63304

The dashed part of the orbit path shows where the satellite is in the earth's shadow,  

DLR